TimePST,TemperatureF,Dew PointF,Humidity,Sea Level PressureIn,VisibilityMPH,Wind Direction,Wind SpeedMPH,Gust SpeedMPH,PrecipitationIn,Events,Conditions,WindDirDegrees,DateUTC
12:15 AM,41.0,37.4,87,30.31,10.0,WNW,6.9,-,N/A,,Clear,290,2013-01-29 08:15:00
12:55 AM,44.6,37.4,76,30.31,10.0,WNW,8.1,-,N/A,,Clear,300,2013-01-29 08:55:00
1:15 AM,44.6,37.4,76,30.30,10.0,WNW,5.8,-,N/A,,Clear,300,2013-01-29 09:15:00
1:35 AM,42.8,37.4,81,30.31,10.0,NW,4.6,-,N/A,,Clear,320,2013-01-29 09:35:00
1:55 AM,41.0,37.4,87,30.31,10.0,NW,5.8,-,N/A,,Clear,310,2013-01-29 09:55:00
2:15 AM,41.0,37.4,87,30.31,10.0,WNW,6.9,-,N/A,,Clear,300,2013-01-29 10:15:00
2:35 AM,39.2,37.4,93,30.32,10.0,WNW,9.2,-,N/A,,Clear,290,2013-01-29 10:35:00
2:55 AM,41.0,37.4,87,30.32,10.0,West,8.1,-,N/A,,Clear,270,2013-01-29 10:55:00
3:15 AM,39.2,37.4,93,30.32,10.0,West,4.6,-,N/A,,Clear,270,2013-01-29 11:15:00
3:35 AM,39.2,35.6,87,30.32,10.0,WNW,5.8,-,N/A,,Clear,300,2013-01-29 11:35:00
3:55 AM,39.2,37.4,93,30.32,10.0,WNW,9.2,-,N/A,,Clear,300,2013-01-29 11:55:00
4:15 AM,41.0,37.4,87,30.32,10.0,NW,6.9,-,N/A,,Partly Cloudy,310,2013-01-29 12:15:00
4:35 AM,41.0,37.4,87,30.32,10.0,NW,4.6,-,N/A,,Clear,320,2013-01-29 12:35:00
4:55 AM,39.2,35.6,87,30.33,10.0,WNW,4.6,-,N/A,,Clear,290,2013-01-29 12:55:00
5:15 AM,39.2,35.6,87,30.33,10.0,WNW,5.8,-,N/A,,Clear,290,2013-01-29 13:15:00
5:35 AM,37.4,35.6,93,30.32,10.0,West,5.8,-,N/A,,Clear,280,2013-01-29 13:35:00
5:55 AM,37.4,35.6,93,30.33,10.0,West,4.6,-,N/A,,Clear,280,2013-01-29 13:55:00
6:15 AM,39.2,35.6,87,30.33,10.0,West,5.8,-,N/A,,Clear,280,2013-01-29 14:15:00
6:35 AM,39.2,35.6,87,30.34,10.0,West,8.1,-,N/A,,Clear,270,2013-01-29 14:35:00
6:55 AM,41.0,35.6,81,30.34,10.0,West,8.1,-,N/A,,Clear,280,2013-01-29 14:55:00
7:15 AM,39.2,35.6,87,30.34,10.0,West,5.8,-,N/A,,Clear,280,2013-01-29 15:15:00
7:35 AM,39.2,35.6,87,30.35,10.0,WNW,5.8,-,N/A,,Clear,290,2013-01-29 15:35:00
7:55 AM,37.4,35.6,93,30.35,10.0,WNW,3.5,-,N/A,,Clear,290,2013-01-29 15:55:00
8:15 AM,39.2,35.6,87,30.36,10.0,NW,3.5,-,N/A,,Clear,320,2013-01-29 16:15:00
8:35 AM,39.2,37.4,93,30.36,10.0,WNW,4.6,-,N/A,,Clear,300,2013-01-29 16:35:00
8:55 AM,42.8,37.4,81,30.36,10.0,West,5.8,-,N/A,,Clear,280,2013-01-29 16:55:00
9:15 AM,44.6,39.2,81,30.37,10.0,West,6.9,-,N/A,,Clear,280,2013-01-29 17:15:00
9:35 AM,46.4,39.2,76,30.37,10.0,West,6.9,-,N/A,,Clear,270,2013-01-29 17:35:00
9:55 AM,48.2,39.2,71,30.37,10.0,WNW,6.9,-,N/A,,Clear,300,2013-01-29 17:55:00
10:15 AM,50.0,39.2,66,30.37,10.0,WNW,11.5,-,N/A,,Clear,300,2013-01-29 18:15:00
10:35 AM,50.0,39.2,66,30.38,10.0,NW,8.1,16.1,N/A,,Clear,310,2013-01-29 18:35:00
10:55 AM,50.0,39.2,66,30.37,10.0,NW,10.4,-,N/A,,Clear,310,2013-01-29 18:55:00
11:15 AM,51.8,39.2,62,30.38,10.0,NW,8.1,-,N/A,,Clear,310,2013-01-29 19:15:00
11:35 AM,53.6,39.2,58,30.37,10.0,WNW,9.2,-,N/A,,Clear,300,2013-01-29 19:35:00
11:55 AM,53.6,39.2,58,30.36,10.0,WNW,9.2,-,N/A,,Clear,300,2013-01-29 19:55:00
12:15 PM,55.4,39.2,54,30.35,10.0,West,6.9,-,N/A,,Clear,280,2013-01-29 20:15:00
12:35 PM,55.4,41.0,58,30.34,10.0,West,9.2,-,N/A,,Clear,280,2013-01-29 20:35:00
12:55 PM,57.2,41.0,55,30.33,10.0,WNW,10.4,-,N/A,,Clear,290,2013-01-29 20:55:00
1:15 PM,57.2,39.2,51,30.32,10.0,NW,5.8,-,N/A,,Clear,310,2013-01-29 21:15:00
1:35 PM,59.0,41.0,51,30.31,10.0,West,9.2,-,N/A,,Clear,280,2013-01-29 21:35:00
1:55 PM,59.0,39.2,48,30.30,10.0,WNW,10.4,-,N/A,,Clear,290,2013-01-29 21:55:00
2:15 PM,59.0,41.0,51,30.30,10.0,West,8.1,-,N/A,,Clear,280,2013-01-29 22:15:00
2:35 PM,59.0,44.6,59,30.29,10.0,West,12.7,-,N/A,,Clear,270,2013-01-29 22:35:00
2:55 PM,59.0,44.6,59,30.30,10.0,West,9.2,-,N/A,,Clear,270,2013-01-29 22:55:00
3:15 PM,59.0,44.6,59,30.30,10.0,West,11.5,-,N/A,,Clear,260,2013-01-29 23:15:00
3:35 PM,57.2,44.6,63,30.29,10.0,West,12.7,17.3,N/A,,Clear,270,2013-01-29 23:35:00
3:55 PM,57.2,44.6,63,30.29,10.0,West,12.7,17.3,N/A,,Clear,270,2013-01-29 23:55:00
4:15 PM,57.2,44.6,63,30.29,10.0,West,11.5,-,N/A,,Clear,280,2013-01-30 00:15:00
4:35 PM,55.4,44.6,67,30.29,10.0,West,10.4,-,N/A,,Clear,260,2013-01-30 00:35:00
4:55 PM,55.4,44.6,67,30.29,10.0,WNW,8.1,-,N/A,,Clear,300,2013-01-30 00:55:00
5:15 PM,53.6,44.6,72,30.29,10.0,NW,3.5,-,N/A,,Clear,320,2013-01-30 01:15:00
5:35 PM,51.8,44.6,76,30.29,10.0,NW,4.6,-,N/A,,Clear,310,2013-01-30 01:35:00
5:55 PM,50.0,44.6,82,30.29,10.0,West,6.9,-,N/A,,Clear,280,2013-01-30 01:55:00
6:15 PM,48.2,44.6,87,30.30,10.0,NNW,4.6,-,N/A,,Clear,330,2013-01-30 02:15:00
6:35 PM,48.2,44.6,87,30.30,10.0,NNW,4.6,-,N/A,,Clear,340,2013-01-30 02:35:00
6:55 PM,48.2,44.6,87,30.30,10.0,NNW,4.6,-,N/A,,Clear,330,2013-01-30 02:55:00
7:15 PM,48.2,44.6,87,30.31,10.0,NW,3.5,-,N/A,,Clear,310,2013-01-30 03:15:00
7:35 PM,46.4,44.6,93,30.31,10.0,NNW,5.8,-,N/A,,Clear,330,2013-01-30 03:35:00
7:55 PM,46.4,42.8,87,30.31,10.0,NNW,5.8,-,N/A,,Clear,330,2013-01-30 03:55:00
8:15 PM,48.2,44.6,87,30.31,10.0,NW,6.9,-,N/A,,Clear,320,2013-01-30 04:15:00
8:35 PM,48.2,44.6,87,30.31,10.0,NW,6.9,-,N/A,,Clear,320,2013-01-30 04:35:00
8:55 PM,48.2,42.8,82,30.32,10.0,NW,4.6,-,N/A,,Clear,310,2013-01-30 04:55:00
9:15 PM,48.2,42.8,82,30.31,10.0,NW,5.8,-,N/A,,Clear,310,2013-01-30 05:15:00
9:35 PM,46.4,42.8,87,30.31,10.0,NW,3.5,-,N/A,,Clear,310,2013-01-30 05:35:00
9:55 PM,46.4,41.0,81,30.31,10.0,WNW,10.4,-,N/A,,Clear,300,2013-01-30 05:55:00
10:15 PM,48.2,41.0,76,30.31,10.0,NW,5.8,-,N/A,,Clear,320,2013-01-30 06:15:00
10:35 PM,48.2,41.0,76,30.31,10.0,NW,4.6,-,N/A,,Clear,310,2013-01-30 06:35:00
10:55 PM,46.4,41.0,81,30.31,10.0,WNW,4.6,-,N/A,,Clear,300,2013-01-30 06:55:00
11:15 PM,48.2,41.0,76,30.31,10.0,NNW,4.6,-,N/A,,Clear,330,2013-01-30 07:15:00
11:35 PM,46.4,41.0,81,30.31,10.0,Calm,Calm,-,N/A,,Clear,0,2013-01-30 07:35:00
11:55 PM,44.6,41.0,87,30.32,10.0,NNW,3.5,-,N/A,,Clear,330,2013-01-30 07:55:00